Honiara International Airport
AGGH : now visible

Airfield :











YOU CAN JOIN US ON...

 
LOGIN :

Register | Disclaimer

   EN    FR    IT 

 









Legend :    VFR   Marginal VFR   IFR   Intensive IFR   Very Intensive IFR
Visi :
Ceiling :
>= 8 km
>= 3000ft
5 to 8 km
1000 to 3000 ft
1500m to 5 km
500 to 1000 ft
800 to 1500m
200 to 500 ft
< 800m
< 200 ft
Symbols :   Thunderstorms  Fog  Heavy snow  Heavy precipitations  Wind > 20 kt






- Airport Elevation : 28 ft
- IATA code : HIR


AGGH - Honiara International

CURRENT METAR :
  • 302300Z 11006KT 9999 FEW020 BKN300 32/25 Q1010

EXPIRED METARs :
  • 302200Z 11008KT 9999 FEW019 BKN300 31/25 Q1010
  • 302100Z 16003KT 9999 FEW016 SCT100 BKN300 27/24 Q1010

TAF TAF AGGH
Valid from the 30 at 18:00 until the 01 at 18:00 UTC


301725Z 3018/0118 07010KT 9999 FEW017 SCT028 T 24 26 31 32 Q 1008 1010 1010 1008
AGGG FIR / Oceania



MET'MAP, your aeronautical weather chart ! - Copyright ORBIFLY December 2007 - Disclaimer

ORBIFLY MET'MAP TEAM :

Programming & Development : Alexandra Zaïnal
Concept & original design : Baudouin d'Aumeries
Assistance for programming : Marc-Olivier Méhu
Technical & hardware support : Manuel Goepfert

Contact : metmap@orbifly.com




SOURCES & CREDITS :

   NOAA       Earth
Advisory